SCP
2 2 2 2 2 1 2 2 2 2 2 1 1 1 1 1 1 1 1 1 1 1 1 1 1 1 1 1 1 1 1 1 1 1 2 2 2 2 2 2 2 2 1
2 2 2 2 2 2 2 2 2 2 2 1 1 1 1 1 1 1 1 1 1 1 2 2 1 1 1 1 1 1 1 1 1 1 2 2 2 2 2 2 2 1 1
2 2 2 2 2 2 2 2 2 2 2 1 1 1 1 1 1 1 1 1 1 1 1 2 2 1 1 1 1 1 1 2 2 2 2 1 1 2 2 2 2 1 1
2 2 2 2 2 2 3 2 2 2 1 1 1 1 1 1 1 1 1 1 1 1 1 2 2 2 1 1 1 1 2 2 2 2 1 1 1 1 1 1 1 1 1
2 2 2 2 2 2 2 2 2 2 1 1 1 1 1 1 1 1 1 1 1 1 2 2 2 2 1 1 1 1 2 2 2 2 1 1 1 1 1 1 1 1 1
2 2 2 2 2 2 2 1 1 1 1 1 1 1 1 1 1 1 1 1 1 1 1 2 2 2 2 2 2 1 1 2 2 1 1 1 1 1 1 1 1 1 1
1 1 2 2 2 2 2 2 2 2 2 1 1 1 1 1 1 1 1 1 1 1 1 1 2 2 2 2 1 1 1 1 1 1 1 1 1 1 1 1 1 1 1
1 1 1 2 2 2 2 2 2 2 2 2 2 2 1 1 1 1 1 1 1 1 1 1 1 2 2 1 1 1 1 1 1 1 1 1 1 1 1 1 1 1 1
1 1 1 2 2 2 2 2 3 2 2 2 2 2 2 1 1 1 1 1 1 1 1 1 1 1 1 1 1 1 1 1 1 1 1 1 1 1 1 1 1 1 1
1 1 1 2 2 2 2 3 3 3 3 2 2 2 2 2 2 1 1 1 1 1 1 1 1 1 1 1 1 1 1 1 1 1 1 1 1 1 1 1 1 1 1
1 1 1 2 2 3 3 4 4 3 3 3 2 2 2 2 2 1 1 1 1 1 1 1 1 1 1 1 1 1 1 1 1 1 1 1 1 1 1 1 1 1 1
2 2 2 2 2 3 3 4 4 4 3 3 2 2 2 2 1 1 1 1 1 1 1 1 1 1 1 1 1 1 0 0 0 0 0 0 1 1 1 1 1 1 1
2 2 2 2 3 3 3 4 4 3 3 2 2 2 1 1 1 1 1 1 1 1 1 1 1 1 1 1 1 0 0 0 0 0 0 0 0 1 1 1 1 1 1
2 2 2 3 3 3 4 4 4 3 2 2 2 1 1 1 1 1 1 1 1 1 1 1 1 1 1 1 1 0 0 0 0 0 0 0 0 0 0 0 0 0 1
3 3 2 3 4 4 4 4 3 2 1 1 1 1 1 1 1 1 1 1 1 1 1 1 1 1 1 1 1 0 0 0 0 0 0 0 0 0 0 0 0 0 0
3 3 3 3 4 3 3 2 1 1 1 1 1 1 1 1 1 1 1 1 1 1 1 1 1 1 1 1 0 0 0 0 0 0 0 0 0 0 0 0 0 0 0
3 3 3 3 3 3 2 1 1 1 1 1 1 1 1 1 1 1 1 1 1 0 1 1 1 1 1 1 1 1 1 0 0 0 0 0 0 0 0 0 0 0 0
2 2 3 3 2 2 1 1 1 1 1 1 1 1 1 1 1 1 1 1 0 0 0 1 1 1 1 1 1 1 1 1 0 0 0 0 0 0 0 0 0 0 0
2 2 2 2 2 1 1 1 1 1 1 1 1 1 1 1 1 1 1 1 1 0 0 0 1 1 1 1 1 1 1 1 1 0 0 0 0 0 0 0 0 0 0
1 2 2 2 2 1 1 1 1 1 1 1 1 1 1 1 1 1 1 1 1 1 1 0 1 1 1 1 1 1 1 1 1 1 0 0 0 0 0 0 0 0 0
2 2 2 2 2 2 1 1 1 1 1 1 1 1 1 1 1 1 0 1 1 1 1 1 0 1 1 1 1 1 1 1 1 1 1 1 1 1 1 0 0 0 0
2 2 3 3 3 2 1 1 1 2 2 1 1 1 1 1 1 1 0 0 0 0 1 1 1 1 1 1 1 1 1 1 1 1 1 1 1 2 2 1 0 0 0
3 3 3 3 3 2 1 0 1 2 2 2 2 1 1 1 1 1 1 1 1 1 1 1 1 1 1 1 1 1 1 1 1 2 2 2 2 2 2 1 0 0 0
3 3 2 3 3 2 1 0 0 1 2 2 2 2 1 1 1 1 2 2 1 1 1 1 1 1 1 1 1 1 1 1 1 2 2 2 2 1 1 1 0 0 0
3 3 3 2 2 2 1 0 0 1 2 2 2 2 1 1 1 1 1 2 2 1 1 1 1 1 1 1 1 1 1 1 1 2 2 2 1 1 1 1 1 0 0
3 3 3 2 2 2 1 0 0 1 2 2 2 2 1 1 1 1 1 1 1 1 1 1 1 0 0 0 1 1 1 1 1 2 2 2 1 1 1 1 1 1 0
Wind_Speed
2 2 2 1 2 2 3 2 1 2 2 2 1 1 1 1 1 1 4 7 5 4 4 4 5 5 5 5 5 4 4 5 6 6 6 6 6 5 4 4 4 5 5
2 2 2 2 2 1 1 1 2 2 1 1 0 1 1 1 1 1 1 5 6 5 4 4 5 5 5 6 5 5 4 5 5 5 6 6 5 5 5 4 4 5 5
3 3 2 2 2 2 2 2 2 2 2 2 1 1 1 1 0 0 1 1 4 6 5 5 4 5 5 6 5 5 5 5 5 5 6 6 6 5 5 5 4 4 4
3 3 3 2 2 2 2 2 2 2 1 1 1 1 1 1 1 1 1 1 1 3 6 6 4 5 5 5 6 5 6 6 6 6 6 5 5 5 5 4 4 4 4
3 3 2 2 3 2 2 3 2 2 2 1 1 1 1 0 1 1 1 1 1 1 2 6 7 6 5 5 5 5 6 6 7 7 6 6 5 4 5 4 4 4 4
4 4 3 3 3 2 2 2 2 2 1 1 1 1 1 0 1 1 1 1 1 2 2 2 4 6 8 6 6 6 6 6 7 7 7 6 5 5 5 5 5 5 5
4 4 3 3 3 3 3 3 3 4 3 2 2 2 2 2 2 1 2 1 1 1 1 2 2 2 5 9 7 7 6 7 7 7 7 6 6 5 5 5 5 5 6
4 5 4 4 3 2 3 4 3 3 2 3 3 3 2 4 3 2 2 3 2 1 2 2 2 2 2 3 6 8 7 6 6 6 7 6 6 6 6 5 5 5 5
5 4 4 4 3 3 3 4 4 4 3 3 3 3 2 1 3 4 3 2 2 2 2 2 3 2 3 2 4 7 6 5 6 6 6 6 6 7 7 7 7 6 6
5 5 4 4 4 4 4 5 5 4 4 3 3 3 3 2 2 2 4 4 3 3 2 2 2 3 3 2 3 4 5 4 4 5 5 6 6 7 8 7 7 7 7
4 4 4 4 4 4 4 5 4 5 4 4 3 3 3 2 4 3 2 3 3 3 2 2 2 2 2 2 3 4 4 4 4 4 5 6 7 7 8 8 8 8 7
3 4 4 4 5 4 5 5 5 6 5 4 4 3 3 3 3 3 2 3 3 2 2 2 3 2 2 2 2 5 4 4 4 4 4 5 7 8 8 8 8 8 8
3 3 4 4 4 4 5 5 5 5 5 5 4 4 3 3 3 3 3 2 2 2 3 3 2 2 2 2 2 5 5 5 5 4 4 5 6 7 8 8 8 8 8
3 3 4 5 5 5 5 5 5 5 4 5 5 4 4 4 3 3 3 3 3 3 3 3 2 2 2 2 2 5 5 6 6 5 5 5 5 6 7 8 8 8 7
3 4 4 4 5 4 5 5 4 4 4 5 5 5 5 3 3 4 4 4 4 4 3 3 3 2 2 2 2 4 4 5 6 6 6 6 6 6 6 7 7 7 7
3 4 5 5 5 5 5 4 4 4 4 4 3 3 4 4 3 4 4 4 4 4 3 2 2 2 2 2 3 4 4 6 8 7 6 6 6 7 7 7 7 7 7
4 5 5 5 5 5 5 5 5 5 5 5 5 5 5 5 3 4 4 4 4 3 3 2 1 2 2 3 2 3 4 4 4 8 6 6 7 7 8 8 8 7 7
4 5 5 5 5 5 5 6 6 6 6 6 6 5 6 4 4 4 4 4 3 3 4 3 2 2 3 3 3 4 4 4 3 6 7 6 6 7 8 8 8 8 8
4 4 5 5 5 5 6 6 6 6 6 6 5 5 5 5 4 4 4 4 4 4 3 3 3 2 3 3 3 4 4 3 5 4 8 8 8 7 7 8 8 8 8
4 4 5 5 5 6 6 6 6 6 6 6 5 5 5 4 4 4 4 4 4 4 4 4 3 3 3 3 3 4 3 3 4 3 3 4 6 9 9 9 9 8 8
4 4 4 4 5 5 5 6 6 7 6 6 5 6 5 3 3 3 3 3 4 4 4 4 4 3 3 2 3 3 3 3 3 3 3 3 4 5 6 8 9 8 8
3 3 4 4 4 3 2 3 5 6 6 6 6 5 6 6 5 5 3 3 3 4 4 4 4 3 3 4 3 4 4 4 3 2 3 4 3 3 3 3 6 8 9
3 3 4 4 4 3 2 4 5 6 6 6 6 6 6 5 7 6 6 7 5 5 5 5 5 5 4 3 4 5 4 5 4 2 3 4 3 3 3 2 7 9 9
3 3 4 4 4 3 4 5 5 7 6 6 6 6 6 5 5 5 6 6 6 6 7 7 6 6 5 4 4 6 5 6 6 5 4 5 3 4 3 2 6 8 8
3 4 4 5 5 4 4 5 6 6 5 6 6 6 6 6 4 5 7 6 6 6 6 5 5 4 4 3 4 6 6 6 5 4 4 5 4 4 4 4 5 8 9
4 4 4 4 5 5 5 5 7 6 5 5 5 6 5 5 6 6 7 7 7 6 5 5 6 7 8 7 7 7 7 6 5 4 3 4 5 4 4 3 3 4 6
Wind_Direction
190 177 175 192 194 175 174 182 164 145 175 175 201 223 251 247 244 194 132 139 152 167 177 180 178 175 173 166 155 151 146 154 157 157 157 155 154 154 152 153 155 155 153
179 193 188 191 195 204 173 179 164 173 179 138 210 262 285 277 201 219 164 153 162 171 181 186 186 183 178 167 163 164 158 153 154 156 154 153 152 149 149 149 153 157 157
190 203 199 196 186 178 180 197 182 184 179 183 195 225 231 258 154 165 197 184 163 161 168 179 185 186 174 170 169 167 164 163 158 155 155 155 154 155 157 156 159 163 165
199 213 204 190 183 201 189 179 197 179 181 208 222 255 225 182 191 193 205 192 175 154 156 156 164 169 174 176 173 171 168 165 161 159 160 163 162 165 167 168 169 176 183
201 218 213 176 198 193 200 202 160 187 187 198 198 204 256 216 159 178 152 168 135 158 156 148 162 166 170 172 175 179 176 169 167 169 169 170 173 176 177 181 186 191 197
209 229 218 202 215 196 189 177 168 186 208 209 224 180 218 193 214 155 199 173 161 179 173 166 173 168 167 168 171 175 176 176 177 178 179 182 184 183 186 195 201 205 205
210 232 235 202 220 198 198 189 191 187 201 202 207 195 180 175 181 190 217 216 192 189 187 188 197 179 164 167 175 181 184 184 188 188 190 193 192 193 199 205 215 212 208
209 218 225 218 207 193 199 202 205 213 207 200 229 228 200 179 182 187 191 190 206 201 190 186 178 188 191 176 151 173 188 195 197 198 199 201 203 203 206 212 218 217 210
209 227 216 224 206 209 197 212 210 218 218 207 231 257 248 208 165 168 183 186 192 206 212 185 187 185 198 189 166 165 178 192 200 206 208 209 211 211 210 212 214 220 220
209 212 210 211 215 219 200 213 208 220 227 223 215 246 277 321 254 173 179 180 188 202 213 220 195 180 192 191 153 137 163 188 202 212 214 215 218 218 216 214 213 216 222
206 210 206 204 209 221 219 228 206 223 224 238 236 226 223 222 246 240 194 189 192 194 191 198 198 189 187 195 194 140 163 187 202 214 219 223 224 223 219 216 217 219 223
202 205 208 209 217 222 218 221 213 218 228 229 241 240 235 235 235 245 223 210 200 183 185 195 209 193 193 194 169 129 172 196 205 214 222 229 227 224 221 220 223 224 225
202 202 218 221 227 222 219 218 211 222 222 221 227 237 241 246 253 256 256 238 228 195 186 208 201 205 207 201 157 156 189 201 211 217 224 232 229 226 223 222 224 227 227
212 198 218 226 230 223 217 208 214 212 215 224 229 235 249 241 241 238 251 250 239 218 196 195 181 197 223 221 136 211 202 190 207 216 225 232 231 229 226 224 226 227 229
215 204 213 220 225 220 216 211 218 213 212 224 226 218 236 238 242 245 248 252 256 251 219 182 193 181 227 222 163 230 234 178 201 218 225 229 230 231 231 228 225 224 222
223 214 211 212 211 207 206 212 216 211 213 222 237 236 242 241 235 238 239 244 253 266 259 191 192 178 210 236 176 238 244 173 202 214 223 228 232 232 228 228 227 222 215
220 215 209 209 205 203 201 210 222 212 215 216 225 222 228 244 236 236 229 232 238 245 249 231 198 161 201 248 212 248 247 240 209 194 210 225 230 229 228 227 223 217 213
221 215 211 212 213 209 205 209 219 214 217 219 221 223 228 225 224 240 236 234 229 235 244 240 233 207 210 225 230 246 252 247 259 175 196 215 225 227 227 222 218 215 213
222 224 218 215 214 214 212 212 217 217 218 221 222 223 228 227 226 229 238 234 225 215 227 235 234 222 225 221 230 234 241 257 261 195 196 205 215 221 222 220 218 216 214
218 224 225 223 218 216 216 217 218 217 219 221 222 224 225 225 226 227 225 231 234 228 217 235 238 223 221 210 232 239 232 226 256 253 226 216 203 209 216 215 212 211 210
216 219 224 224 223 219 220 225 225 218 217 218 218 220 218 216 227 241 246 224 223 231 227 230 230 228 223 219 234 250 257 248 234 247 252 234 210 218 205 208 206 201 202
217 216 219 225 225 229 203 233 249 234 224 218 218 218 208 195 196 211 246 271 269 245 247 249 243 242 245 243 248 259 261 259 254 217 251 257 240 238 227 222 172 182 197
223 224 225 228 229 224 186 213 241 243 233 226 219 219 222 197 201 207 204 210 221 239 251 262 260 259 253 252 261 258 258 273 282 281 255 264 249 247 244 198 156 181 195
230 233 233 233 229 209 188 207 227 232 234 230 226 223 224 214 208 221 218 211 215 213 219 229 247 257 266 275 259 260 264 251 252 247 241 264 257 256 256 220 165 184 198
232 236 235 235 233 210 186 201 224 228 224 224 223 220 222 216 192 225 228 223 226 228 216 225 251 266 298 296 281 261 251 249 251 239 216 253 260 256 250 231 184 185 201
232 235 235 238 234 222 188 198 223 235 226 226 216 215 213 222 191 206 228 227 229 234 239 212 218 231 235 229 226 244 258 261 265 260 216 242 254 254 256 229 217 199 208